Home   Weather   Singen (Hohentwiel)   Past weeks

Flag for Germany Past Weather in Singen (Hohentwiel), Baden-Württemberg, Germany — Yesterday and Last 2 Weeks

Now
25 °F

Partly sunny.


Feels Like: 17 °F
Forecast: 16 / 27 °F
Wind: 7 mph from Northeast

Location: Zurich-Kloten

Current Time: Jan 19, 2017 at 4:19:29 pm

Latest Report: Jan 19, 2017 at 3:20 pm


Visibility: N/A

Pressure: 30.42 "Hg

Humidity: 74%

Dew Point: 18 °F

Location of Singen (Hohentwiel)Location

Past Weather in Singen (Hohentwiel) — Graph

°F

Singen (Hohentwiel) Temperature Yesterday

Maximum temperature yesterday: 27 °F (at 2:20 pm)
Minimum temperature yesterday: 23 °F (at 3:20 am)
Average temperature yesterday: 25 °F

High & Low Weather Summary for the Past Weeks

 TemperatureHumidityPressure
High43 °F (Jan 12, 1:50 pm)100% (Jan 5, 5:50 am)30.66 "Hg (Jan 5, 5:50 am)
Low5 °F (Jan 7, 4:20 am)61% (Jan 13, 2:20 am)29.50 "Hg (Jan 12, 11:50 pm)
Average28 °F83%30.19 "Hg
* Reported Jan 4 3:20 pm — Jan 19 3:20 pm, Singen (Hohentwiel), Weather by CustomWeather, © 2017

Note: Actual official high and low records may vary slightly from our data, if they occured in-between our weather recording intervals... More about our weather records

Advertising

Singen (Hohentwiel) Weather History for the Previous 24 Hours

Scroll right to see more
 ConditionsComfort  
Time TempWeatherWind HumidityBarometerVisibility
3:20 pm
Thu, Jan 19
25 °FPartly sunny.7 mph74%30.42 "HgN/A
2:50 pm25 °FPartly sunny.7 mph74%30.42 "Hg5 mi
2:20 pm25 °FPartly sunny.9 mph74%30.42 "Hg5 mi
1:50 pm25 °FPartly sunny.8 mph74%30.42 "Hg5 mi
1:20 pm25 °FPartly sunny.8 mph74%30.45 "Hg5 mi
12:50 pm23 °FPartly sunny.8 mph80%30.45 "Hg5 mi
12:20 pm23 °FPartly sunny.10 mph80%30.45 "Hg5 mi
11:50 am23 °FPartly sunny.10 mph80%30.45 "Hg5 mi
11:20 am23 °FPartly sunny.10 mph80%30.45 "Hg5 mi
10:50 am23 °FPartly sunny.7 mph80%30.45 "Hg5 mi
10:20 am23 °FPartly sunny.8 mph80%30.45 "Hg5 mi
9:50 am23 °FPartly sunny.10 mph80%30.45 "Hg6 mi
9:20 am23 °FPartly sunny.9 mph80%30.45 "Hg6 mi
8:50 am23 °FPartly sunny.9 mph80%30.45 "Hg6 mi
8:20 am23 °FOvercast.10 mph80%30.42 "HgN/A
7:50 am23 °FOvercast.9 mph80%30.42 "HgN/A
7:20 am23 °FOvercast.9 mph80%30.42 "HgN/A
6:50 am23 °FOvercast.8 mph80%30.42 "HgN/A
6:20 am23 °FOvercast.7 mph80%30.42 "HgN/A
5:50 am23 °FOvercast.6 mph80%30.42 "HgN/A
5:20 am23 °FOvercast.8 mph80%30.42 "HgN/A
4:50 am25 °FOvercast.9 mph74%30.42 "HgN/A
4:20 am25 °FOvercast.10 mph74%30.42 "HgN/A
3:50 am25 °FOvercast.10 mph69%30.42 "HgN/A
3:20 am25 °FOvercast.9 mph69%30.42 "HgN/A
2:50 am25 °FOvercast.9 mph69%30.42 "HgN/A
2:20 am25 °FOvercast.8 mph74%30.42 "HgN/A
1:50 am25 °FOvercast.7 mph69%30.39 "HgN/A
12:50 am25 °FOvercast.10 mph69%30.39 "HgN/A
12:20 am25 °FOvercast.9 mph69%30.39 "HgN/A
11:50 pm
Wed, Jan 18
25 °FPassing clouds.9 mph69%30.39 "HgN/A
11:20 pm25 °FPassing clouds.12 mph69%30.42 "HgN/A
10:50 pm25 °FPassing clouds.12 mph69%30.42 "HgN/A
10:20 pm25 °FPassing clouds.14 mph69%30.42 "HgN/A
9:50 pm25 °FPassing clouds.9 mph69%30.42 "HgN/A
9:20 pm25 °FPassing clouds.10 mph69%30.42 "HgN/A
8:50 pm25 °FPassing clouds.9 mph69%30.42 "HgN/A
8:20 pm25 °FPassing clouds.9 mph69%30.42 "HgN/A
7:50 pm27 °FPassing clouds.13 mph64%30.42 "HgN/A
7:20 pm27 °FPassing clouds.8 mph64%30.42 "HgN/A
6:50 pm27 °FPassing clouds.10 mph64%30.42 "HgN/A
6:20 pm27 °FPassing clouds.12 mph64%30.42 "HgN/A
5:50 pm27 °FPassing clouds.14 mph64%30.42 "HgN/A
5:20 pm27 °FPassing clouds.10 mph64%30.42 "HgN/A
4:50 pm27 °FPartly sunny.9 mph64%30.39 "HgN/A
4:20 pm27 °FPartly sunny.12 mph64%30.39 "HgN/A
Weather by CustomWeather, © 2017

See weather overviewHow to use our weather pages